GFSNIL_925_temp_000.txt.gz
Temp
24 24 23 23 23 23 22 22 21 21 21 21 21 21 20 21 21 20 20 20 19 19
24 24 23 23 22 22 22 21 21 21 21 21 20 21 21 21 20 20 20 20 19 19
24 24 23 22 22 22 21 21 21 21 21 21 21 20 21 20 20 20 20 20 19 19
24 23 23 23 22 22 22 21 21 21 21 21 21 21 20 20 20 20 20 20 20 19
24 23 23 23 22 22 21 21 21 21 21 21 21 21 20 20 20 20 20 20 20 19
24 24 23 23 23 22 22 21 21 21 21 21 21 21 21 21 21 20 20 20 19 19
24 24 24 23 22 22 22 21 21 21 21 21 21 21 21 21 21 20 20 20 20 19
24 24 24 23 23 22 22 21 21 21 21 21 21 22 21 21 21 20 20 20 19 19
24 24 24 23 23 22 22 22 22 22 22 21 22 21 21 20 20 20 20 20 20 19
24 23 23 23 23 22 22 22 22 22 22 22 22 21 21 20 20 20 20 19 18 18
24 23 23 23 23 23 23 22 22 22 21 21 21 21 20 20 20 20 19 18 17 17
24 23 23 23 23 23 23 22 22 20 21 19 20 21 20 19 19 19 18 17 16 16
25 24 24 24 24 23 23 22 22 21 21 19 20 20 20 19 19 18 17 16 16 16
24 25 25 24 24 23 22 19 18 18 19 19 19 19 19 18 17 16 15 15 15 15

GFSNIL_925_temp_003.txt.gz
Temp
24 24 23 22 22 22 22 22 21 21 21 21 20 20 20 20 20 20 20 19 19 19
25 24 23 23 22 22 22 22 21 21 20 20 20 20 20 20 20 20 20 20 20 19
25 24 24 23 23 22 22 21 21 20 20 20 20 20 20 20 20 20 20 20 19 19
25 24 23 23 23 22 22 21 21 21 20 20 20 20 20 20 20 20 20 20 20 20
25 24 23 23 23 22 22 22 21 21 20 20 20 21 21 20 20 20 20 20 19 20
24 24 23 23 23 22 22 21 21 21 20 21 21 21 21 21 21 20 20 20 20 20
24 24 23 23 22 22 22 21 21 21 21 21 21 21 21 21 21 21 20 20 20 19
24 24 24 23 23 23 22 22 22 21 21 21 21 21 21 21 21 21 20 20 20 19
24 23 23 23 23 23 23 22 22 21 21 21 21 21 21 21 21 21 20 20 20 19
23 23 23 24 23 23 23 22 22 21 21 21 21 21 21 21 20 20 20 19 18 18
21 21 23 23 23 23 22 22 22 22 22 21 21 21 21 20 20 19 19 18 18 18
19 23 22 22 23 23 22 22 21 22 22 21 20 21 20 19 18 19 19 18 17 16
21 22 21 23 24 22 21 23 21 21 22 21 21 20 20 19 18 18 18 17 16 16
21 21 20 20 20 20 17 18 20 22 22 21 20 20 19 18 18 17 17 15 15 15

GFSNIL_925_temp_006.txt.gz
Temp
23 23 23 23 22 22 22 22 22 21 20 21 20 20 20 20 20 19 19 19 19 19
23 23 23 24 22 22 22 22 21 21 21 20 20 20 20 20 20 20 19 19 19 19
24 23 24 24 22 22 22 22 21 21 20 20 20 20 20 20 20 20 20 20 19 19
24 23 24 24 23 23 22 22 21 21 20 20 20 20 20 20 20 20 20 20 19 19
24 24 24 23 23 22 22 22 21 21 20 20 20 20 20 20 20 20 20 20 19 19
23 24 24 24 23 23 22 22 21 21 20 20 20 20 20 20 20 20 20 20 20 19
23 24 24 24 23 23 22 22 21 21 20 20 20 20 20 21 21 21 21 20 20 20
23 23 23 23 23 22 22 22 21 21 21 20 21 21 21 21 21 21 21 21 20 20
21 21 23 22 22 22 22 22 21 21 21 21 21 21 21 21 21 21 21 20 20 20
19 19 19 18 18 21 22 22 21 21 21 21 21 21 21 21 20 20 20 20 19 19
19 18 21 20 19 20 22 22 21 21 21 21 21 21 20 20 20 19 19 19 18 17
19 18 19 20 22 19 20 20 20 20 20 21 21 22 21 20 19 19 19 18 17 17
20 18 19 19 18 19 19 19 18 18 17 17 16 20 19 19 19 19 18 18 16 16
19 19 18 18 18 19 19 19 18 19 21 21 18 16 17 18 18 18 17 16 16 15

GFSNIL_925_temp_009.txt.gz
Temp
23 23 22 22 22 22 22 21 22 22 21 20 20 20 19 19 19 19 19 18 18 19
22 22 22 22 23 21 22 21 22 22 21 20 20 20 19 20 19 19 19 19 19 19
22 23 23 23 23 22 21 22 22 21 20 20 20 20 19 19 19 19 19 19 18 18
22 22 23 23 23 24 22 22 22 21 21 20 20 20 19 19 19 19 19 19 18 19
22 25 25 25 22 23 24 22 22 21 21 20 19 19 19 19 19 19 19 19 19 19
22 23 24 23 24 24 24 22 22 21 21 20 19 19 19 19 19 19 19 19 19 19
22 23 24 22 24 23 23 23 21 21 21 20 19 19 19 19 19 19 19 19 19 19
22 21 21 19 19 20 20 18 20 21 21 21 20 20 20 19 19 19 19 19 20 19
22 21 20 18 17 20 18 19 18 18 20 20 20 20 21 20 20 19 19 19 19 18
21 20 19 18 17 19 19 20 19 17 20 21 20 21 21 21 20 19 19 19 19 18
21 20 19 18 18 18 18 20 18 19 21 20 20 20 21 20 19 18 18 18 18 17
21 20 19 18 17 18 17 17 17 18 17 18 18 20 21 20 19 17 18 18 18 17
20 20 19 18 17 17 17 16 17 18 19 21 21 21 20 21 20 18 16 16 17 17
19 19 19 18 17 17 17 18 18 18 19 19 21 19 21 20 19 18 16 17 17 15